Regional Weather Roundup
Issued by NWS Glasgow, MT

Home | Current Version | Previous Version | Text Only | Print | Product List | Glossary On
Versions: 1 2 3 4 5 6 7 8 9 10 11 12 13 14 15 16 17 18 19 20 21 22 23 24 25 26 27 28 29 30 31 32 33 34 35 36 37 38 39 40 41 42 43 44 45 46 47 48 49 50
000
ASUS45 KGGW 061715
RWRGGW
HOURLY WEATHER ROUNDUP FOR NORTHEAST MONTANA
NATIONAL WEATHER SERVICE GLASGOW MONTANA
1000 AM MST FRI MAR 06 2015

NOTE: "FAIR" INDICATES FEW OR NO CLOUDS BELOW 12,000 FEET WITH NO
SIGNIFICANT WEATHER AND/OR OBSTRUCTIONS TO VISISBILITY.

NORTHEAST MONTANA


CITY           SKY/WX    TMP DP  RH WIND       PRES   REMARKS
GLASGOW        SUNNY     42  23  46 W8        30.03F
PLENTYWOOD       N/A     34  24  67 S5          N/A
WOLF POINT     MOSUNNY   42  24  49 W13       30.02F
JORDAN           N/A     46  21  37 W22G29    30.08R
WINNETT          N/A     53  20  27 W10G21      N/A
SIDNEY         PTSUNNY   36  19  51 S10       30.07F
GLENDIVE       CLOUDY    46  25  42 SW13      30.06F
MALTA            N/A     41  24  51 W13         N/A
SCOBEY           N/A     38  17  43 SW14G20   29.97R

FORT PECK REPORTS


CITY           SKY/WX    TMP DP  RH WIND       PRES   REMARKS
FORT PECK        N/A     45  25  45 W13G25      N/A
THE PINES        N/A     50  21  32 W8          N/A

SOUTHEAST MONTANA


CITY           SKY/WX    TMP DP  RH WIND       PRES   REMARKS
BILLINGS       MOSUNNY   49  17  28 W10       30.18S
MILES CITY     SUNNY     49  19  30 MISG      30.10S
BAKER          MOSUNNY   45  19  35 W17       30.08F
LIVINGSTON     MOSUNNY   50  15  24 SW26G44   30.23F

CENTRAL MONTANA


CITY           SKY/WX    TMP DP  RH WIND       PRES   REMARKS
HAVRE          SUNNY     47  23  38 SW18G26   30.09R
LEWISTOWN      MOSUNNY   45  26  47 W15       30.14R
GREAT FALLS    PTSUNNY   51  19  28 SW25      30.15R
CUT BANK       CLOUDY    46  22  38 W26G36    30.11R
HELENA         CLOUDY    47  17  30 W15G23    30.27S
BUTTE          MOSUNNY   40  15  36 NE7       30.34S
BOZEMAN        PTSUNNY   41  20  43 CALM      30.31S

WESTERN MONTANA


CITY           SKY/WX    TMP DP  RH WIND       PRES   REMARKS
MISSOULA       SUNNY     35  22  58 CALM      30.40S
KALISPELL      NOT AVBL

NORTH DAKOTA


CITY           SKY/WX    TMP DP  RH WIND       PRES   REMARKS
WILLISTON      CLOUDY    31  21  66 S6        30.03F
DICKINSON      CLOUDY    38  18  44 W9        30.04F
MINOT          PTSUNNY   29  16  58 S9        30.04F
BISMARCK       PTSUNNY   31  18  58 S3        30.13S

SOUTHERN SASKATCHEWAN


CITY           SKY/WX    TMP DP  RH WIND       PRES   REMARKS
REGINA         CLOUDY    27  23  86 S10       29.91F
MOOSE JAW      PTSUNNY   36  27  69 W21       29.89F
ESTEVAN        CLOUDY    28  19  69 SW15      29.98F
SWIFT CURRENT  PTSUNNY   36  27  69 W17       29.94S



USA.gov is the U.S. government's official web portal to all federal, state and local government web resources and services.